EN

Hourly Weather Lahi

Today, 24 July, Saturday

Time Temperature Precipitation Wind Pressure Humidity
00:00 +15°C° 0 mm 1 mps 742 mmHg 72%
01:00 +14°C° 0 mm 1 mps 743 mmHg 74%
02:00 +13°C° 0 mm 0 mps 743 mmHg 75%
03:00 +14°C° 0 mm 1 mps 743 mmHg 77%
04:00 +13°C° 0 mm 1 mps 743 mmHg 78%
05:00 +13°C° 0 mm 1 mps 743 mmHg 79%
06:00 +15°C° 0 mm 1 mps 744 mmHg 71%
07:00 +18°C° 0 mm 1 mps 744 mmHg 62%
08:00 +20°C° 0 mm 2 mps 744 mmHg 53%
09:00 +21°C° 0 mm 2 mps 744 mmHg 48%
10:00 +23°C° 0 mm 2 mps 745 mmHg 43%
11:00 +24°C° 0 mm 2 mps 745 mmHg 37%
12:00 +25°C° 0 mm 1 mps 745 mmHg 35%
13:00 +25°C° 0 mm 1 mps 745 mmHg 34%
14:00 +26°C° 0 mm 1 mps 745 mmHg 32%
15:00 +26°C° 0 mm 1 mps 745 mmHg 32%
16:00 +25°C° 0 mm 1 mps 745 mmHg 33%
17:00 +25°C° 0 mm 1 mps 745 mmHg 34%
18:00 +23°C° 0 mm 2 mps 745 mmHg 42%
19:00 +20°C° 0 mm 2 mps 745 mmHg 51%
20:00 +18°C° 0 mm 2 mps 746 mmHg 59%
21:00 +17°C° 0 mm 2 mps 746 mmHg 62%
22:00 +16°C° 0 mm 2 mps 746 mmHg 65%
23:00 +15°C° 0 mm 2 mps 746 mmHg 67%

Tomorrow, 25 July, Sunday

Time Temperature Precipitation Wind Pressure Humidity
00:00 +14°C° 0 mm 2 mps 746 mmHg 70%
01:00 +14°C° 0 mm 2 mps 747 mmHg 72%
02:00 +13°C° 0 mm 2 mps 747 mmHg 75%
03:00 +14°C° 0 mm 1 mps 747 mmHg 76%
04:00 +14°C° 0 mm 1 mps 747 mmHg 78%
05:00 +14°C° 0 mm 1 mps 747 mmHg 79%
06:00 +16°C° 0 mm 1 mps 747 mmHg 71%
07:00 +20°C° 0 mm 1 mps 748 mmHg 63%
08:00 +22°C° 0 mm 1 mps 748 mmHg 55%
09:00 +24°C° 0 mm 1 mps 748 mmHg 49%
10:00 +25°C° 0 mm 2 mps 748 mmHg 44%
11:00 +27°C° 0 mm 2 mps 748 mmHg 38%
12:00 +27°C° 0 mm 2 mps 748 mmHg 37%
13:00 +27°C° 0 mm 2 mps 748 mmHg 37%
14:00 +28°C° 0 mm 2 mps 748 mmHg 36%
15:00 +27°C° 0 mm 2 mps 748 mmHg 38%
16:00 +27°C° 0 mm 2 mps 748 mmHg 40%
17:00 +26°C° 0 mm 2 mps 748 mmHg 42%
18:00 +25°C° 0 mm 2 mps 748 mmHg 48%
19:00 +23°C° 0 mm 2 mps 748 mmHg 54%
20:00 +21°C° 0 mm 2 mps 748 mmHg 59%
21:00 +20°C° 0 mm 2 mps 748 mmHg 61%
22:00 +20°C° 0 mm 2 mps 749 mmHg 63%
23:00 +19°C° 0 mm 2 mps 749 mmHg 65%

Day after tomorrow, 26 July, Monday

Time Temperature Precipitation Wind Pressure Humidity
00:00 +19°C° 0 mm 2 mps 749 mmHg 69%
01:00 +18°C° 0 mm 2 mps 749 mmHg 72%
02:00 +18°C° 0 mm 2 mps 749 mmHg 75%
03:00 +17°C° 0 mm 2 mps 749 mmHg 77%
04:00 +18°C° 0 mm 1 mps 749 mmHg 80%
05:00 +18°C° 0 mm 1 mps 749 mmHg 82%
06:00 +20°C° 0 mm 1 mps 750 mmHg 74%
07:00 +22°C° 0 mm 1 mps 750 mmHg 67%
08:00 +24°C° 0 mm 1 mps 750 mmHg 59%
09:00 +26°C° 0 mm 1 mps 750 mmHg 53%
10:00 +27°C° 0 mm 2 mps 750 mmHg 46%
11:00 +29°C° 0 mm 2 mps 750 mmHg 40%
12:00 +28°C° 0 mm 2 mps 750 mmHg 42%
13:00 +28°C° 0 mm 2 mps 750 mmHg 44%
14:00 +28°C° 0 mm 2 mps 749 mmHg 45%
15:00 +27°C° 0 mm 2 mps 749 mmHg 47%
16:00 +27°C° 0 mm 2 mps 749 mmHg 49%
17:00 +26°C° 0 mm 1 mps 749 mmHg 51%
18:00 +25°C° 0 mm 2 mps 749 mmHg 55%
19:00 +24°C° 0 mm 2 mps 749 mmHg 58%
20:00 +23°C° 0 mm 2 mps 749 mmHg 62%
21:00 +21°C° 0 mm 2 mps 749 mmHg 66%
22:00 +20°C° 0 mm 2 mps 749 mmHg 69%
23:00 +19°C° 0 mm 2 mps 749 mmHg 73%

27 July, Tuesday

Time Temperature Precipitation Wind Pressure Humidity
00:00 +18°C° 0 mm 2 mps 749 mmHg 77%
01:00 +18°C° 0 mm 2 mps 749 mmHg 81%
02:00 +17°C° 0 mm 2 mps 749 mmHg 84%
03:00 +17°C° 0 mm 2 mps 749 mmHg 85%
04:00 +17°C° 0 mm 2 mps 749 mmHg 85%
05:00 +17°C° 0 mm 2 mps 749 mmHg 86%
06:00 +19°C° 0 mm 2 mps 749 mmHg 76%
07:00 +23°C° 0 mm 2 mps 749 mmHg 67%
08:00 +25°C° 0 mm 2 mps 749 mmHg 57%
09:00 +26°C° 0 mm 3 mps 749 mmHg 51%
10:00 +28°C° 0 mm 3 mps 749 mmHg 45%
11:00 +29°C° 0 mm 4 mps 749 mmHg 39%
12:00 +30°C° 0 mm 3 mps 748 mmHg 38%
13:00 +30°C° 0 mm 3 mps 748 mmHg 38%
14:00 +30°C° 0 mm 3 mps 748 mmHg 37%
15:00 +29°C° 0 mm 3 mps 747 mmHg 40%
16:00 +29°C° 0 mm 3 mps 747 mmHg 42%
17:00 +28°C° 0 mm 2 mps 747 mmHg 45%
18:00 +27°C° 0 mm 2 mps 746 mmHg 50%
19:00 +25°C° 0 mm 2 mps 746 mmHg 55%
20:00 +24°C° 0 mm 1 mps 746 mmHg 60%
21:00 +24°C° 0 mm 2 mps 746 mmHg 60%
22:00 +22°C° 0 mm 3 mps 746 mmHg 59%
23:00 +22°C° 0 mm 3 mps 746 mmHg 59%

28 July, Wednesday

Time Temperature Precipitation Wind Pressure Humidity
00:00 +22°C° 0.1 mm 3 mps 745 mmHg 62%
01:00 +21°C° 0.1 mm 4 mps 745 mmHg 65%
02:00 +21°C° 0.1 mm 4 mps 745 mmHg 68%
03:00 +20°C° 0.7 mm 4 mps 744 mmHg 77%
04:00 +19°C° 0.7 mm 4 mps 744 mmHg 85%
05:00 +18°C° 0.7 mm 4 mps 744 mmHg 94%
06:00 +18°C° 0.9 mm 4 mps 743 mmHg 94%
07:00 +18°C° 0.9 mm 4 mps 743 mmHg 95%
08:00 +18°C° 0.9 mm 4 mps 742 mmHg 95%
09:00 +18°C° 0.8 mm 4 mps 742 mmHg 95%
10:00 +18°C° 0.8 mm 4 mps 742 mmHg 94%
11:00 +18°C° 0.8 mm 4 mps 741 mmHg 94%
12:00 +19°C° 0.3 mm 3 mps 741 mmHg 90%
13:00 +21°C° 0.3 mm 3 mps 741 mmHg 85%
14:00 +22°C° 0.3 mm 3 mps 740 mmHg 81%
15:00 +23°C° 0.6 mm 2 mps 740 mmHg 85%
16:00 +21°C° 0.6 mm 2 mps 740 mmHg 90%
17:00 +22°C° 0.6 mm 1 mps 739 mmHg 94%
18:00 +22°C° 0.4 mm 1 mps 739 mmHg 95%
19:00 +21°C° 0.4 mm 1 mps 739 mmHg 96%
20:00 +21°C° 0.4 mm 1 mps 738 mmHg 97%
21:00 +20°C° 0 mm 1 mps 738 mmHg 97%
22:00 +20°C° 0 mm 1 mps 738 mmHg 98%
23:00 +18°C° 0 mm 2 mps 738 mmHg 98%

29 July, Thursday

Time Temperature Precipitation Wind Pressure Humidity
00:00 +18°C° 0 mm 2 mps 738 mmHg 98%
01:00 +18°C° 0 mm 2 mps 738 mmHg 97%
02:00 +18°C° 0 mm 2 mps 738 mmHg 97%
03:00 +18°C° 0 mm 2 mps 738 mmHg 97%
04:00 +17°C° 0 mm 2 mps 739 mmHg 97%
05:00 +17°C° 0 mm 2 mps 739 mmHg 97%
06:00 +18°C° 0 mm 3 mps 739 mmHg 92%
07:00 +19°C° 0 mm 3 mps 739 mmHg 86%
08:00 +21°C° 0 mm 4 mps 740 mmHg 81%
09:00 +22°C° 0 mm 4 mps 740 mmHg 71%
10:00 +25°C° 0 mm 4 mps 740 mmHg 60%
11:00 +27°C° 0 mm 4 mps 740 mmHg 50%
12:00 +27°C° 0 mm 5 mps 740 mmHg 45%
13:00 +28°C° 0 mm 5 mps 740 mmHg 41%
14:00 +29°C° 0 mm 5 mps 740 mmHg 37%
15:00 +28°C° 0 mm 5 mps 740 mmHg 41%
16:00 +27°C° 0 mm 4 mps 740 mmHg 45%
17:00 +26°C° 0 mm 4 mps 740 mmHg 49%
18:00 +23°C° 0 mm 4 mps 741 mmHg 56%
19:00 +22°C° 0 mm 3 mps 741 mmHg 63%
20:00 +21°C° 0 mm 2 mps 741 mmHg 70%
21:00 +20°C° 0 mm 2 mps 741 mmHg 73%
22:00 +19°C° 0 mm 2 mps 741 mmHg 77%
23:00 +18°C° 0 mm 2 mps 742 mmHg 80%
Show more